Weather reports worldwide

Advertisment
Aberdeen/Dyce, United Kingdom (3091): temperature & dewpoint: 19.01.2017 01:00:00 - 25.01.2017 01:00:00 (GMT)Aberdeen/Dyce, United Kingdom (3091): temperature -20cm & temperature -100cm: 19.01.2017 01:00:00 - 25.01.2017 01:00:00 (GMT)Aberdeen/Dyce, United Kingdom (3091): wind speed & gusts: 19.01.2017 01:00:00 - 25.01.2017 01:00:00 (GMT)Aberdeen/Dyce, United Kingdom (3091): wind direction: 19.01.2017 01:00:00 - 25.01.2017 01:00:00 (GMT)Aberdeen/Dyce, United Kingdom (3091): reduced air pressure: 19.01.2017 01:00:00 - 25.01.2017 01:00:00 (GMT)Aberdeen/Dyce, United Kingdom (3091): visibility: 19.01.2017 01:00:00 - 25.01.2017 01:00:00 (GMT)Aberdeen/Dyce, United Kingdom (3091): sunshine duration: 19.01.2017 01:00:00 - 25.01.2017 01:00:00 (GMT)Aberdeen/Dyce, United Kingdom (3091): precipitation: 19.01.2017 01:00:00 - 25.01.2017 01:00:00 (GMT)
Date & Time tt [°C] td [°C] tt -20cm [°C] tt -100cm [°C] ff [km/h] ff [kn] fx [km/h] fx [kn] dd ppp [hPa] vv [km] sd [min] rr [mm]
25.01.2017 01:00:00 8,4 6,9 - - 22 12 - - S 1016,7 35 0 0,0
25.01.2017 00:00:00 8,8 7,2 - - 26 14 - - S 1017,2 40 - 0,0
24.01.2017 23:00:00 8,9 7,2 - - 16 9 - - SSW 1017,1 10 0 0,0
24.01.2017 22:00:00 9,0 6,9 - - 21 11 - - S 1016,7 10 0 0,0
24.01.2017 21:00:00 9,5 6,7 - - 15 8 - - SSW 1017,1 10 0 0,0
24.01.2017 20:00:00 8,8 6,5 - - 15 8 - - SW 1017,0 10 0 0,0
24.01.2017 19:00:00 9,0 6,7 - - 9 5 - - SSW 1017,2 50 0 0,0
24.01.2017 18:00:00 9,3 6,7 - - 8 4 - - - 1017,1 10 0 0,0
24.01.2017 17:00:00 9,1 6,7 - - 13 7 - - S 1017,0 10 0 0,0
24.01.2017 16:00:00 9,0 6,3 - - 26 14 - - SSW 1016,8 50 0 0,0
24.01.2017 15:00:00 9,6 7,0 - - 21 11 - - S 1016,9 10 0 0,0
24.01.2017 14:00:00 10,1 6,6 - - 18 10 - - SSW 1016,7 10 30 0,0
24.01.2017 13:00:00 10,3 6,9 - - 15 8 - - S 1017,2 45 60 0,0
24.01.2017 12:00:00 9,5 6,2 - - 11 6 - - SW 1017,2 10 60 0,0
24.01.2017 11:00:00 9,0 6,2 - - 9 5 - - SSE 1017,7 10 24 0,0
24.01.2017 10:00:00 6,8 4,6 - - 13 7 - - SSE 1017,6 40 0 0,0
24.01.2017 09:00:00 7,0 4,8 3,7 5,4 18 10 - - SW 1016,7 45 0 0,0
24.01.2017 08:00:00 5,1 3,5 - - 11 6 - - SE 1016,8 10 0 0,0
24.01.2017 07:00:00 6,1 3,9 - - 28 15 - - S 1016,0 19 0 0,0
24.01.2017 06:00:00 5,8 3,7 - - 18 10 50 27 S 1016,4 10 0 0,0
24.01.2017 05:00:00 5,2 3,0 - - 22 12 - - S 1016,1 14 0 0,0
24.01.2017 04:00:00 4,9 2,9 - - 35 19 52 28 SSW 1016,1 12 0 0,0
24.01.2017 03:00:00 4,1 2,5 - - 15 8 - - S 1017,0 10 0 0,0
24.01.2017 02:00:00 2,7 1,7 - - 16 9 - - SSE 1018,1 7 0 0,0
24.01.2017 01:00:00 2,8 1,9 - - 21 11 - - S 1018,6 3,7 0 0,0
24.01.2017 00:00:00 3,2 2,0 - - 16 9 - - S 1018,9 6 - 0,0
23.01.2017 23:00:00 1,6 0,8 - - 16 9 - - S 1019,4 9 0 0,0
23.01.2017 22:00:00 0,1 -1,3 - - 16 9 - - S 1020,0 7 0 0,0
23.01.2017 21:00:00 0,4 -1,2 - - 15 8 - - S 1020,1 10 0 0,0
23.01.2017 20:00:00 2,2 -0,5 - - 11 6 - - S 1020,6 10 0 0,0
23.01.2017 19:00:00 0,6 -2,0 - - 5 3 - - - 1021,0 10 0 0,0
23.01.2017 18:00:00 3,5 -1,3 - - 8 4 - - SSE 1021,2 10 0 0,0
23.01.2017 17:00:00 4,3 -0,8 - - 8 4 - - SW 1021,2 10 0 0,0
23.01.2017 16:00:00 5,8 0,9 - - 8 4 - - SW 1021,7 10 30 0,0
23.01.2017 15:00:00 7,3 1,3 - - 9 5 - - SSW 1021,6 10 54 0,0
23.01.2017 14:00:00 7,2 1,8 - - 11 6 - - S 1022,4 10 60 0,0
23.01.2017 13:00:00 7,6 2,8 - - 9 5 - - S 1023,3 26 60 0,0
23.01.2017 12:00:00 4,7 1,9 - - 2 1 - - - 1023,6 10 48 0,0
23.01.2017 11:00:00 3,6 1,3 - - 2 1 - - - 1024,2 10 0 0,0
23.01.2017 10:00:00 2,7 1,2 - - 5 3 - - N 1024,6 16 0 0,0
23.01.2017 09:00:00 1,7 0,5 3,7 5,5 5 3 - - N 1024,3 12 0 0,0
23.01.2017 08:00:00 1,4 0,1 - - 4 2 - - NW 1024,0 10 0 0,0
23.01.2017 07:00:00 0,8 -0,1 - - 4 2 - - - 1023,7 10 0 0,0
23.01.2017 06:00:00 0,7 -0,4 - - 5 3 - - - 1023,8 10 0 0,0
23.01.2017 05:00:00 3,2 0,5 - - 4 2 - - SSW 1023,4 23 0 0,0
23.01.2017 04:00:00 4,3 0,7 - - 8 4 - - W 1023,4 10 0 0,0
23.01.2017 03:00:00 4,3 0,8 - - 11 6 - - W 1023,5 10 0 0,0
23.01.2017 02:00:00 4,5 0,9 - - 9 5 - - W 1023,7 10 0 0,0
23.01.2017 01:00:00 4,4 1,0 - - 9 5 - - W 1023,7 10 0 0,0
23.01.2017 00:00:00 4,4 0,8 - - 11 6 - - WNW 1023,7 30 - 0,0
22.01.2017 23:00:00 4,3 0,3 - - 13 7 - - W 1023,3 10 0 0,0
22.01.2017 22:00:00 4,1 0,1 - - 4 2 - - N 1022,9 29 0 0,0
22.01.2017 21:00:00 3,8 0,2 - - 5 3 - - - 1022,8 10 0 0,0
22.01.2017 20:00:00 2,5 -0,1 - - 5 3 - - W 1022,8 10 0 0,0
22.01.2017 19:00:00 3,2 -0,2 - - 2 1 - - - 1022,6 10 0 0,0
22.01.2017 18:00:00 3,1 -0,6 - - 2 1 - - - 1022,5 10 0 0,0
22.01.2017 17:00:00 3,2 -0,8 - - 4 2 - - - 1022,2 10 0 0,0
22.01.2017 16:00:00 3,6 -1,0 - - 8 4 - - SW 1021,9 50 0 0,0
22.01.2017 15:00:00 3,9 -0,6 - - 11 6 - - S 1021,7 10 0 0,0
22.01.2017 14:00:00 4,6 -2,0 - - 11 6 - - WSW 1021,7 10 18 0,0
22.01.2017 13:00:00 3,8 -0,6 - - 11 6 - - SW 1022,0 10 30 0,0
22.01.2017 12:00:00 4,2 0,5 - - 11 6 - - WSW 1022,4 10 60 0,0
22.01.2017 11:00:00 4,1 1,2 - - 9 5 - - SSW 1022,8 10 60 0,0
22.01.2017 10:00:00 2,6 1,0 - - 4 2 - - S 1023,0 10 30 0,0
22.01.2017 09:00:00 1,4 0,1 3,5 5,7 8 4 - - SE 1023,0 10 0 0,0
22.01.2017 08:00:00 2,0 0,7 - - 4 2 - - SSE 1023,0 10 0 0,0
22.01.2017 07:00:00 3,1 1,0 - - 4 2 - - - 1022,7 10 0 0,0
22.01.2017 06:00:00 2,8 1,2 - - 4 2 - - - 1022,7 10 0 0,0
22.01.2017 05:00:00 3,3 1,2 - - 8 4 - - WSW 1023,1 10 0 0,0
22.01.2017 04:00:00 3,4 1,6 - - 9 5 - - WSW 1023,4 10 0 0,0
22.01.2017 03:00:00 3,6 1,7 - - 11 6 - - WSW 1023,8 16 0 0,0
22.01.2017 02:00:00 3,7 2,0 - - 13 7 - - SW 1024,3 13 0 0,0
22.01.2017 01:00:00 4,0 2,2 - - 11 6 - - SW 1024,7 16 0 0,0
22.01.2017 00:00:00 4,0 2,5 - - 11 6 - - S 1025,3 10 - 0,0
21.01.2017 23:00:00 2,5 1,5 - - 2 1 - - - 1025,7 8 0 0,0
21.01.2017 22:00:00 2,6 1,6 - - 8 4 - - SSW 1025,9 8 0 0,0
21.01.2017 21:00:00 3,2 1,9 - - 11 6 - - S 1026,2 10 0 0,0
21.01.2017 20:00:00 3,5 2,4 - - 11 6 - - SSW 1026,5 10 0 0,0
21.01.2017 19:00:00 3,1 2,2 - - 15 8 - - S 1026,6 10 0 0,0
21.01.2017 18:00:00 2,1 1,6 - - 13 7 - - S 1026,9 7 0 0,0
21.01.2017 17:00:00 2,1 0,7 - - 9 5 - - SSW 1027,1 5 0 0,0
21.01.2017 16:00:00 2,5 1,5 - - 11 6 - - S 1027,1 5 24 0,0
21.01.2017 15:00:00 3,6 0,9 - - 13 7 - - S 1027,1 10 60 0,0
21.01.2017 14:00:00 5,3 1,5 - - 16 9 - - S 1027,4 10 60 0,0
21.01.2017 13:00:00 5,4 2,0 - - 9 5 - - S 1028,2 10 60 0,0
21.01.2017 12:00:00 3,6 1,8 - - 11 6 - - SSE 1029,1 10 60 0,0
21.01.2017 11:00:00 2,2 1,1 - - 13 7 - - SSE 1029,4 9 60 0,0
21.01.2017 10:00:00 1,5 0,6 - - 11 6 - - S 1029,6 10 48 0,0
21.01.2017 09:00:00 0,7 0,0 3,5 5,7 8 4 - - S 1029,6 10 0 0,0
21.01.2017 08:00:00 1,3 0,6 - - 15 8 - - S 1029,5 12 0 0,0
21.01.2017 07:00:00 1,4 0,9 - - 21 11 - - S 1029,3 8 0 0,0
21.01.2017 06:00:00 1,6 0,8 - - 15 8 - - S 1029,4 8 0 0,0
21.01.2017 05:00:00 1,9 1,4 - - 15 8 - - S 1029,5 8 0 0,0
21.01.2017 04:00:00 2,4 1,9 - - 15 8 - - S 1029,8 7 0 0,0
21.01.2017 03:00:00 2,5 2,1 - - 24 13 - - S 1030,0 7 0 0,0
21.01.2017 02:00:00 2,8 2,4 - - 22 12 - - S 1030,5 6 0 0,0
21.01.2017 01:00:00 2,7 2,6 - - 18 10 - - S 1031,0 4,7 0 0,0
21.01.2017 00:00:00 2,8 2,6 - - 13 7 - - S 1031,3 5 - 0,0
20.01.2017 23:00:00 2,8 2,6 - - 22 12 - - S 1031,8 5 0 0,0
20.01.2017 22:00:00 2,8 2,6 - - 16 9 - - S 1032,1 5 0 0,0
20.01.2017 21:00:00 2,8 2,7 - - 15 8 - - S 1032,4 4,5 0 0,0
20.01.2017 20:00:00 2,9 2,8 - - 13 7 - - S 1032,5 6 0 0,0
20.01.2017 19:00:00 2,8 2,5 - - 11 6 - - SSE 1032,6 7 0 0,0
20.01.2017 18:00:00 2,5 2,3 - - 9 5 - - S 1032,8 10 0 0,0
20.01.2017 17:00:00 1,8 1,1 - - 9 5 - - SSE 1032,9 10 0 0,0
20.01.2017 16:00:00 3,5 2,2 - - 5 3 - - SSE 1032,8 24 24 0,0
20.01.2017 15:00:00 4,1 2,6 - - 5 3 - - SSE 1032,9 10 60 0,0
20.01.2017 14:00:00 4,8 2,1 - - 2 1 - - - 1033,2 10 60 0,0
20.01.2017 13:00:00 3,8 1,2 - - 2 1 - - NNW 1033,7 13 60 0,2
20.01.2017 12:00:00 1,0 0,1 - - 5 3 - - - 1034,2 10 60 0,0
20.01.2017 11:00:00 0,4 -0,3 - - 4 2 - - - 1034,6 10 60 0,0
20.01.2017 10:00:00 -1,1 -1,1 - - 5 3 - - N 1034,7 9 54 0,0
20.01.2017 09:00:00 -2,6 -2,7 3,7 5,7 4 2 - - N 1034,7 10 0 0,0
20.01.2017 08:00:00 -0,9 -1,2 - - 4 2 - - - 1034,2 10 0 0,0
20.01.2017 07:00:00 -2,7 -2,8 - - 4 2 - - N 1034,0 8 0 0,0
20.01.2017 06:00:00 -2,8 -3,0 - - 2 1 - - N 1033,9 8 0 0,0
20.01.2017 05:00:00 -2,1 -2,1 - - 0 0 - - N 1034,2 10 0 0,0
20.01.2017 04:00:00 -2,1 -2,2 - - 5 3 - - N 1034,3 7 0 0,0
20.01.2017 03:00:00 -2,0 -2,0 - - 2 1 - - - 1034,3 10 0 0,0
20.01.2017 02:00:00 -1,9 -2,0 - - 4 2 - - - 1034,4 10 0 0,0
20.01.2017 01:00:00 -1,9 -1,9 - - 4 2 - - N 1034,6 0,4 0 0,0
20.01.2017 00:00:00 -1,5 -1,5 - - 0 0 - - N 1035,0 5 - 0,0
19.01.2017 23:00:00 -1,2 -1,2 - - 0 0 - - N 1035,3 10 0 0,0
19.01.2017 22:00:00 -0,6 -0,8 - - 2 1 - - - 1035,1 10 0 0,0
19.01.2017 21:00:00 -0,6 -1,0 - - 2 1 - - - 1035,0 10 0 0,0
19.01.2017 20:00:00 0,6 0,3 - - 4 2 - - N 1034,8 17 0 0,0
19.01.2017 19:00:00 0,8 0,2 - - 4 2 - - - 1034,8 9 0 0,0
19.01.2017 18:00:00 2,7 1,5 - - 5 3 - - WSW 1034,4 10 0 0,0
19.01.2017 17:00:00 4,1 2,1 - - 4 2 - - NNE 1034,1 26 0 0,0
19.01.2017 16:00:00 6,0 3,0 - - 2 1 - - SSW 1033,7 50 24 0,0
19.01.2017 15:00:00 9,0 3,5 - - 9 5 - - WSW 1033,6 10 60 0,0
19.01.2017 14:00:00 9,4 4,9 - - 8 4 - - WSW 1033,9 10 60 0,0
19.01.2017 13:00:00 7,5 4,0 - - 2 1 - - E 1034,3 40 60 0,0
19.01.2017 12:00:00 3,5 2,0 - - 4 2 - - - 1034,6 10 60 0,2
19.01.2017 11:00:00 2,7 1,2 - - 4 2 - - N 1034,7 50 60 0,0
19.01.2017 10:00:00 0,5 -0,6 - - 2 1 - - - 1034,7 10 54 0,0
19.01.2017 09:00:00 -0,5 -1,8 4,4 5,7 2 1 - - NW 1034,5 35 0 0,0
19.01.2017 08:00:00 -0,3 -1,0 - - 4 2 - - NNE 1034,0 45 0 0,0
19.01.2017 07:00:00 0,6 0,3 - - 5 3 - - N 1033,4 50 0 0,0
19.01.2017 06:00:00 0,2 -0,3 - - 4 2 - - E 1033,1 45 0 0,0
19.01.2017 05:00:00 0,8 0,3 - - 2 1 - - NE 1032,9 50 0 0,0
19.01.2017 04:00:00 1,4 0,7 - - 2 1 - - - 1033,0 10 0 0,0
19.01.2017 03:00:00 1,5 -0,1 - - 9 5 - - NE 1032,9 50 0 0,0
19.01.2017 02:00:00 0,1 -0,8 - - 4 2 - - N 1032,8 40 0 0,0
19.01.2017 01:00:00 0,3 0,3 - - 4 2 - - N 1033,2 30 0 0,0

tt = temperature
td = dewpoint
tt -20cm = temperature -20cm
tt -100cm = temperature -100cm
ff = wind speed
fx = gusts
dd = wind direction
ppp = reduced air pressure
vv = visibility
sd = sunshine duration
rr = precipitation

Next stations